Regional Weather Roundup
Issued by NWS

Home | Current Version | Previous Version | Graphics & Text | Print | Product List | Glossary On
Versions: 1 2 3 4 5 6 7 8 9 10 11 12 13 14 15 16 17 18 19 20 21 22 23 24 25 26 27
000
ASUS45 KBOI 220510
RWRID

IDAHO REGIONAL WEATHER ROUNDUP
NATIONAL WEATHER SERVICE BOISE ID
1100 PM MDT WED JUN 21 2017

NOTE: "FAIR" INDICATES FEW OR NO CLOUDS BELOW 12000 FEET
WITH NO SIGNIFICANT WEATHER AND/OR OBSTRUCTIONS TO VISIBILITY

IDZ012-014-220600-
SOUTHWEST IDAHO


CITY           SKY/WX    TMP DP  RH WIND       PRES   REMARKS
BOISE          CLEAR     73  36  25 W9        29.98R
CALDWELL       CLEAR     69  35  28 W13       30.00R
MOUNTAIN HOME  CLEAR     71  38  29 NW14      29.97R
$$

IDZ016-017-220600-
SOUTHCENTRAL IDAHO


CITY           SKY/WX    TMP DP  RH WIND       PRES   REMARKS
BURLEY         CLEAR     68  28  22 W18G29    29.98R
JEROME         CLEAR     69  30  23 SW16      29.99R
TWIN FALLS     CLEAR     68  31  25 SW18G25   30.01R
$$

IDZ019>023-220600-
SOUTHEAST IDAHO


CITY           SKY/WX    TMP DP  RH WIND       PRES   REMARKS
IDAHO FALLS    CLEAR     67  40  37 SW18      29.96R
POCATELLO      CLOUDY    69  34  27 SW16G24   30.00R
REXBURG        CLEAR     67  40  37 SW10G18   29.95R
$$

IDZ006-010-011-018-031-032-220600-
CENTRAL IDAHO MOUNTAINS


CITY           SKY/WX    TMP DP  RH WIND       PRES   REMARKS
MCCALL         CLEAR     58  32  37 NW3       30.12R
HAILEY         CLEAR     73  36  25 NW12      30.02R
STANLEY          N/A     53  35  50 CALM      30.16R
SALMON         CLEAR     70  34  26 N16       29.99S
CHALLIS        PTCLDY    65  33  30 N6        30.03R
$$

IDZ002-004-006-007-026-220600-
NORTHERN IDAHO


CITY           SKY/WX    TMP DP  RH WIND       PRES   REMARKS
LEWISTON       CLEAR     67  35  30 W7        30.04R
LOWELL           N/A     58  45  62 CALM      30.08R
COEUR D`ALENE  PTCLDY    58  38  47 SW5       30.03R
MULLAN PASS    CLEAR     49  23  36 VRB3      30.14S
$$




USA.gov is the U.S. government's official web portal to all federal, state and local government web resources and services.